DW8548 Weather Reports


time (UTC)temp
F
wind
direction
speed
knots
gust
knots
rain 1hr
in
rain 24hr
in
rain mn
in
humidity
%
barometer
mb
20260507081600 71 81 1.7 7.0 0.00 0.00 0.00 44 1026.9
20260507074608 72 65 1.7 7.8 0.00 0.00 0.00 41 1027.0
20260507073055 73 111 0.9 7.0 0.00 0.00 0.00 41 1027.0
20260507071559 74 355 0.9 6.1 0.00 0.00 0.00 41 1027.0
20260507070057 74 31 1.7 7.8 0.00 0.00 0.00 42 1027.0
20260507064554 74 46 0.9 5.2 0.00 0.00 0.00 42 1027.1
20260507063053 73 0 1.7 4.3 0.00 0.00 0.00 42 1027.2
20260507061552 73 0 0.0 5.2 0.00 0.00 0.00 45 1027.3
20260507060056 73 40 0.9 3.5 0.00 0.00 0.00 45 1027.4
20260507054636 72 231 0.9 3.5 0.00 0.00 0.00 48 1027.6
20260507053055 72 0 0.9 5.2 0.00 0.00 0.00 47 1027.7
20260507051556 72 34 0.9 6.1 0.00 0.00 0.00 48 1028.1
20260507050058 72 80 0.0 3.5 0.00 0.00 0.00 50 1028.3
20260507044559 71 69 1.7 7.0 0.00 0.00 0.00 50 1028.6
20260507043053 71 103 0.9 2.6 0.00 0.00 0.00 49 1029.0
20260507041600 70 59 0.9 6.1 0.00 0.00 0.00 50 1029.3
20260507040055 69 178 0.9 5.2 0.00 0.00 0.00 51 1029.5
20260507034558 69 0 0.9 3.5 0.00 0.00 0.00 51 1029.6
20260507033104 68 249 0.9 6.1 0.00 0.00 0.00 53 1029.9
20260507031606 67 39 0.9 7.0 0.00 0.00 0.00 55 1030.1
20260507030058 66 298 0.9 5.2 0.00 0.00 0.00 56 1030.4
20260507024557 65 0 0.9 4.3 0.00 0.00 0.00 57 1030.5
20260507023104 64 244 0.9 2.6 0.00 0.00 0.00 59 1030.6
20260507021553 64 202 0.9 3.5 0.00 0.00 0.00 59 1030.7
20260507020056 63 0 0.9 7.8 0.00 0.00 0.00 61 1030.8
20260507014603 62 0 0.0 3.5 0.00 0.00 0.00 65 1031.0
20260507013058 61 0 0.0 4.3 0.00 0.00 0.00 67 1031.2
20260507011551 60 129 0.0 3.5 0.00 0.00 0.00 69 1031.3
20260507010105 59 85 0.9 3.5 0.00 0.00 0.00 72 1031.2
20260507004556 58 86 0.9 5.2 0.00 0.00 0.00 75 1031.4
20260507003419 56 0 0.0 2.6 0.00 0.00 0.00 77 1031.5
20260507001559 54 134 0.9 3.5 0.00 0.00 0.00 78 1031.5
20260507000055 53 92 0.9 4.3 0.00 0.00 0.00 79 1031.6
20260506234554 52 0 0.0 2.6 0.00 0.00 0.00 80 1031.4
20260506233109 51 71 0.0 1.7 0.00 0.00 0.00 80 1031.1
20260506231559 50 0 0.0 2.6 0.00 0.00 0.00 81 1031.1
20260506230056 50 0 0.0 1.7 0.00 0.00 0.00 82 1030.8
20260506224555 49 97 0.0 2.6 0.00 0.00 0.00 83 1030.6
20260506223102 48 80 0.0 1.7 0.00 0.00 0.00 84 1030.3
20260506221558 48 0 0.0 0.0 0.00 0.00 0.00 84 1030.3
20260506220055 48 0 0.0 1.7 0.00 0.00 0.00 86 1030.2
20260506214552 47 0 0.0 1.7 0.00 0.00 0.00 86 1030.2
20260506213112 47 0 0.0 0.0 0.00 0.00 0.00 85 1030.2
20260506211551 47 0 0.0 0.0 0.00 0.00 0.00 84 1030.2
20260506210058 48 0 0.0 0.0 0.00 0.00 0.00 82 1029.9
20260506204555 49 0 0.0 0.0 0.00 0.00 0.00 81 1029.9
20260506203056 49 0 0.0 0.0 0.00 0.00 0.00 80 1029.6
20260506201558 50 0 0.0 1.7 0.00 0.00 0.00 78 1029.6
20260506200051 51 0 0.0 0.0 0.00 0.00 0.00 77 1029.5
20260506194556 51 0 0.0 0.0 0.00 0.00 0.00 75 1029.6
20260506193104 53 0 0.0 0.0 0.00 0.00 0.00 73 1029.5
20260506191555 55 0 0.0 0.9 0.00 0.00 0.00 71 1029.5
20260506190101 55 109 0.0 3.5 0.00 0.00 0.00 70 1029.4
20260506184557 55 64 0.0 4.3 0.00 0.00 0.00 72 1029.5
20260506183055 54 138 0.0 0.9 0.00 0.00 0.00 73 1029.6
20260506181554 54 0 0.0 1.7 0.00 0.00 0.00 73 1029.6
20260506180108 54 0 0.0 2.6 0.00 0.00 0.00 72 1029.6
20260506174556 54 0 0.0 1.7 0.00 0.00 0.00 72 1029.6
20260506173058 55 0 0.0 0.9 0.00 0.00 0.00 71 1029.6
20260506171601 55 0 0.0 1.7 0.00 0.00 0.00 70 1029.5
20260506170105 56 0 0.9 5.2 0.00 0.00 0.00 70 1029.4
20260506164557 56 99 0.0 7.8 0.00 0.00 0.00 70 1029.5
20260506163111 55 0 0.0 3.5 0.00 0.00 0.00 69 1029.5
20260506161606 56 0 0.0 3.5 0.00 0.00 0.00 68 1029.6
20260506160055 56 84 0.0 2.6 0.00 0.00 0.00 68 1029.7
20260506154610 56 79 0.0 2.6 0.00 0.00 0.00 69 1029.6
20260506153107 56 0 0.0 1.7 0.00 0.00 0.00 69 1029.5
20260506151558 56 0 0.0 2.6 0.00 0.00 0.00 70 1029.7
20260506144554 56 0 0.0 3.5 0.00 0.00 0.00 71 1029.6
20260506143103 56 0 0.0 0.9 0.00 0.00 0.00 72 1029.7
20260506141555 56 0 0.0 0.9 0.00 0.00 0.00 72 1029.7
20260506140057 56 0 0.0 0.9 0.00 0.00 0.00 73 1029.5
20260506134554 56 0 0.0 0.9 0.00 0.00 0.00 73 1029.5
20260506133057 57 0 0.0 1.7 0.00 0.00 0.00 72 1029.5
20260506131557 57 0 0.0 1.7 0.00 0.00 0.00 73 1029.4
20260506130053 57 0 0.0 0.9 0.00 0.00 0.00 74 1029.3
20260506124553 57 0 0.0 1.7 0.00 0.00 0.00 74 1029.0
20260506123052 56 0 0.0 0.9 0.00 0.00 0.00 76 1029.0
20260506121553 56 0 0.0 0.9 0.00 0.00 0.00 76 1028.9
20260506120058 57 0 0.0 0.0 0.00 0.00 0.00 76 1028.8
20260506114604 57 0 0.0 0.0 0.00 0.00 0.00 73 1028.7
20260506113053 58 0 0.0 0.0 0.00 0.00 0.00 72 1028.6
20260506111555 59 0 0.0 0.0 0.00 0.00 0.00 71 1028.5
20260506110101 60 0 0.0 0.0 0.00 0.00 0.00 69 1028.5
20260506104557 60 0 0.0 0.0 0.00 0.00 0.00 68 1028.5
20260506103052 61 0 0.0 0.0 0.00 0.00 0.00 66 1028.5
20260506101602 63 0 0.0 1.7 0.00 0.00 0.00 63 1028.3
20260506100057 64 0 0.0 2.6 0.00 0.00 0.00 60 1028.2
20260506094621 65 0 0.0 6.1 0.00 0.00 0.00 58 1028.1
20260506093055 66 88 0.9 6.1 0.00 0.00 0.00 57 1027.9
20260506091554 67 0 0.9 4.3 0.00 0.00 0.00 55 1027.8
20260506090053 68 104 0.9 5.2 0.00 0.00 0.00 55 1027.7
20260506084555 68 112 0.9 7.0 0.00 0.00 0.00 54 1027.7
20260506083059 69 111 0.9 5.2 0.00 0.00 0.00 53 1027.6